This is the latest recevied weather packets stored in our database for station/object W0SS-13. If no packets are shown the sender has not sent any weather packets the latest 10 day(s).
| Time | Temp. | Humidity | Pressure | Rain* | Wind** | Luminosity | Snow |
|---|---|---|---|---|---|---|---|
| 1777648972 | 13.33° C | 48% | 1020.2 hPa | 0 mm | - | 581 W/m² | - |
| 1777648669 | 13.89° C | 45% | 1019.9 hPa | 0 mm | - | 569 W/m² | - |
| 1777648365 | 13.33° C | 45% | 1019.9 hPa | 0 mm | - | 557 W/m² | - |
| 1777648061 | 13.33° C | 47% | 1020 hPa | 0 mm | - | 543 W/m² | - |
| 1777647758 | 13.33° C | 49% | 1020.1 hPa | 0 mm | - | 532 W/m² | - |
| 1777647454 | 13.33° C | 48% | 1019.8 hPa | 0 mm | - | 515 W/m² | - |
| 1777647152 | 12.78° C | 47% | 1020.1 hPa | 0 mm | - | 499 W/m² | - |
| 1777646848 | 12.78° C | 53% | 1020 hPa | 0 mm | - | 482 W/m² | - |
| 1777646240 | 12.78° C | 53% | 1019.7 hPa | 0 mm | - | 453 W/m² | - |
| 1777645938 | 12.78° C | 54% | 1019.9 hPa | 0 mm | - | 438 W/m² | - |
| 1777645635 | 12.78° C | 55% | 1019.9 hPa | 0 mm | - | 424 W/m² | - |
| 1777645330 | 12.22° C | 58% | 1020.1 hPa | 0 mm | - | 408 W/m² | - |
| 1777645026 | 12.22° C | 58% | 1020.1 hPa | 0 mm | - | 390 W/m² | - |
| 1777644724 | 11.67° C | 58% | 1019.9 hPa | 0 mm | - | 375 W/m² | - |
| 1777644420 | 11.67° C | 58% | 1020.1 hPa | 0 mm | - | 219 W/m² | - |
| 1777644117 | 11.67° C | 60% | 1019.9 hPa | 0 mm | - | 348 W/m² | - |
| 1777643813 | 11.11° C | 63% | 1020 hPa | 0 mm | - | 331 W/m² | - |
| 1777643511 | 10.56° C | 65% | 1020 hPa | 0 mm | - | 314 W/m² | - |
| 1777643207 | 10.56° C | 68% | 1019.8 hPa | 0 mm | - | 297 W/m² | - |
| 1777642904 | 10.56° C | 67% | 1020.2 hPa | 0 mm | - | 281 W/m² | - |
| 1777642601 | 10.56° C | 69% | 1020.3 hPa | 0 mm | - | 264 W/m² | - |
| 1777642298 | 10° C | 68% | 1020.1 hPa | 0 mm | - | 248 W/m² | - |
| 1777641994 | 9.44° C | 71% | 1020.4 hPa | 0 mm | - | 232 W/m² | - |
| 1777641690 | 8.89° C | 71% | 1020.1 hPa | 0 mm | - | 214 W/m² | - |
| 1777641385 | 8.89° C | 73% | 1020.2 hPa | 0 mm | - | 194 W/m² | - |
* Rain latest hour (hover to see other rain measurements)
** Current wind speed in m/s (hover to see current wind gust speed)